Hourly Data Report for September 22, 2017

All times are specified in Local Standard Time (LST). Add 1 hour to adjust for Daylight Saving Time where and when it is observed.

CORAL HARBOUR A
NUNAVUT

64°11'36.000" N
83°21'34.000" W
62.20 m
2301002
71915
YZS

Download Data

Hourly Data (September 2017)
Hourly Data Report for September 22, 2017
Temp Definition
°C
Dew Point Temp Definition
°C
Rel Hum Definition
%
Wind Dir Definition
10's deg

Wind Spd Definition
km/h
Visibility Definition
km
Stn Press Definition
kPa
Hmdx Definition


Wind Chill Definition


Weather Definition


TIME
00:00 Legend Double Dagger -0.3 -2.5 85 6 14 24.1 100.99   -5 LegendNANA
01:00 Legend Double Dagger -0.8 -2.9 86 5 11 24.1 101.01   -5 Mainly Clear
02:00 Legend Double Dagger -0.6 -3.0 84 6 13 24.1 101.01   -5 LegendNANA
03:00 Legend Double Dagger -0.8 -3.1 84 6 10 24.1 101.03   -4 LegendNANA
04:00 Legend Double Dagger -0.6 -3.2 83 3 31 24.1 101.00   -7 Mainly Clear
05:00 Legend Double Dagger -0.8 -3.3 83 3 25 24.1 101.01   -7 LegendNANA
06:00 Legend Double Dagger -1.2 -3.6 84 2 14 24.1 101.03   -6 LegendNANA
07:00 Legend Double Dagger -1.7 -3.6 87 32 9 24.1 101.09   -5 Mostly Cloudy
08:00 Legend Double Dagger -0.9 -3.2 84 6 23 24.1 101.07   -7 LegendNANA
09:00 Legend Double Dagger 0.4 -3.1 78 6 19 24.1 101.04     LegendNANA
10:00 Legend Double Dagger 1.5 -3.6 69 6 17 24.1 101.02     Cloudy
11:00 Legend Double Dagger 2.4 -4.4 61 7 13 24.1 101.05     LegendNANA
12:00 Legend Double Dagger 2.4 -3.2 67 17 16 24.1 101.06     LegendNANA
13:00 Legend Double Dagger 2.9 -2.8 66 17 15 24.1 101.06     Cloudy
14:00 Legend Double Dagger 3.0 -2.7 66 17 19 24.1 101.01     LegendNANA
15:00 Legend Double Dagger 3.3 -2.4 66 16 17 24.1 100.99     LegendNANA
16:00 Legend Double Dagger 3.4 -2.5 65 16 22 24.1 100.96     Cloudy
17:00 Legend Double Dagger 2.9 -3.1 64 17 17 24.1 100.99     LegendNANA
18:00 Legend Double Dagger 1.7 -1.8 77 17 16 24.1 101.04     LegendNANA
19:00 Legend Double Dagger 0.0 -2.1 86 19 11 24.1 101.05   -4 Mostly Cloudy
20:00 Legend Double Dagger -0.2 -2.8 83 18 13 24.1 101.06   -4 LegendNANA
21:00 Legend Double Dagger -0.8 -3.4 83 4 9 24.1 101.05   -4 LegendNANA
22:00 Legend Double Dagger -0.9 -3.4 84 4 12 24.1 101.03   -5 Mainly Clear
23:00 Legend Double Dagger -1.9 -4.2 85 2 14 24.1 101.03   -7 LegendNANA

Notes on Data Quality.

Legend

  • E = Estimated
  • M = Missing
  • NA = Not Available
  • ‡ = Partner data that is not subject to review by the National Climate Archives
Date modified: